Theta_e
319 323 326 325 326 326 327 327 326 327 331 328 325 327 326 320 321 323 320 321 324 324 329 330 327 330 330 332 337 340 342 345 345 346 347 346 347 348 349 350 350 349 348 347 347 347 347 348 349 349 349 350 351 351 352 351 352 352 352 352 353 353 353
319 318 323 326 327 329 328 324 325 328 330 329 326 324 323 321 323 326 323 319 318 318 325 333 332 331 332 332 335 339 342 345 346 347 346 346 346 347 348 349 350 350 349 348 347 347 347 348 349 349 349 350 351 351 351 352 351 352 352 352 352 353 353
320 317 321 326 327 329 328 327 327 329 328 326 324 324 325 325 325 326 323 320 319 318 323 330 330 332 334 333 335 340 341 344 346 345 346 346 345 347 347 349 349 349 350 348 347 347 347 347 348 348 349 350 351 351 351 352 352 352 352 352 353 352 353
319 319 320 324 326 327 328 328 329 332 330 325 324 325 325 326 327 326 320 318 321 324 328 329 328 332 334 333 336 338 340 344 344 343 345 345 345 347 347 347 349 349 349 348 347 347 348 347 348 348 349 350 350 352 351 351 351 352 352 352 352 352 353
319 322 322 323 325 326 326 324 325 328 327 325 326 324 322 324 328 327 321 318 324 333 335 331 331 333 332 335 338 338 338 341 344 344 345 345 345 346 346 347 348 348 348 348 347 347 348 347 348 349 348 350 350 351 352 351 352 352 352 352 353 353 353
321 322 320 321 322 322 322 322 324 326 324 323 326 325 321 320 324 328 325 319 325 336 333 328 328 329 327 331 335 336 337 339 342 343 344 346 346 345 346 347 347 348 348 348 348 348 347 347 348 348 348 349 350 351 352 352 352 352 352 352 352 353 353
318 317 316 316 317 318 320 322 323 326 326 322 322 325 324 319 321 327 325 319 324 337 336 329 327 327 323 325 331 335 336 336 340 342 342 344 345 344 346 345 345 348 348 348 349 348 348 348 348 348 349 349 350 350 350 351 352 352 352 352 352 353 353
318 317 317 316 316 318 320 322 321 321 323 321 322 328 328 322 319 321 323 319 322 333 337 328 325 327 323 321 325 332 336 336 337 340 342 344 345 345 346 346 347 348 348 349 350 348 348 348 348 348 349 349 349 350 351 351 352 352 352 352 352 352 353
324 320 320 322 324 320 317 319 318 317 321 322 324 328 325 321 319 320 322 320 320 332 340 330 326 328 326 325 325 327 333 337 337 338 340 343 345 345 346 346 347 349 350 352 352 350 348 348 348 348 348 349 349 350 350 350 351 352 352 352 352 352 352
327 323 325 325 324 318 314 316 316 316 318 318 320 322 318 320 324 320 320 319 319 330 339 333 332 333 331 335 334 329 328 331 336 341 341 341 345 346 346 347 348 350 352 354 353 351 349 348 349 348 348 349 349 349 350 350 350 351 351 352 352 352 352
322 321 320 317 316 315 315 316 315 316 316 316 320 321 318 324 328 321 322 323 320 327 333 331 334 337 335 340 341 338 332 327 330 338 341 342 342 345 347 347 349 353 353 354 354 352 349 348 348 348 349 349 349 350 350 350 350 350 351 351 351 351 352
315 315 315 313 314 315 315 316 316 316 317 316 320 321 320 326 325 318 325 331 321 321 329 331 332 332 335 341 342 340 337 331 326 330 339 343 341 343 347 348 350 354 354 354 355 352 349 349 349 349 349 349 349 350 349 349 350 350 351 351 351 351 352
314 313 314 313 314 314 314 316 316 317 318 319 321 322 323 327 323 317 330 340 327 322 335 341 339 336 334 334 333 333 331 329 326 326 332 340 341 342 345 349 351 353 354 355 354 353 351 349 349 349 349 349 349 349 349 350 350 351 350 351 351 351 351
314 313 314 314 314 315 315 317 319 321 326 329 328 325 325 325 321 322 336 343 331 330 341 347 350 348 344 340 341 343 339 330 327 328 329 335 342 343 345 348 350 351 353 354 353 354 353 349 349 350 350 350 350 350 350 350 350 350 351 351 351 351 351
316 314 314 314 315 315 316 322 327 328 334 341 336 331 335 335 329 328 331 330 331 338 344 351 356 355 355 353 352 356 353 341 334 332 333 338 344 345 345 348 350 351 353 354 354 355 354 350 350 350 350 350 351 350 351 351 350 351 350 351 351 351 351
319 318 316 315 315 318 323 328 329 327 334 345 342 337 341 344 343 340 330 326 339 348 351 357 357 354 357 358 356 358 358 351 346 340 339 344 346 346 348 348 351 352 351 353 354 353 351 350 349 350 350 351 351 351 351 351 351 351 351 351 351 351 352
322 319 314 315 320 329 334 331 326 325 330 338 340 339 337 337 342 347 341 339 346 350 351 357 360 356 356 357 355 355 357 358 354 347 344 348 347 346 349 350 351 352 351 352 353 351 349 349 349 350 350 351 351 351 352 352 352 352 352 352 351 352 352
320 317 314 320 330 336 335 328 322 323 327 329 334 337 335 333 336 341 342 343 345 347 350 354 357 357 356 355 353 352 354 357 357 355 348 348 348 347 350 350 350 352 351 352 350 349 349 349 349 350 351 352 352 352 353 352 353 353 353 353 353 353 352
318 317 320 332 339 334 329 323 319 322 324 324 328 334 333 329 332 334 335 338 340 344 349 350 350 355 355 353 353 351 350 353 356 359 359 354 351 352 352 351 351 353 354 354 351 349 349 350 350 351 351 352 352 352 353 353 354 354 354 354 353 354 353
318 319 324 335 339 332 327 325 321 321 322 322 326 335 334 327 328 331 332 334 335 340 347 348 350 354 354 352 353 349 347 350 353 358 364 362 355 354 353 353 355 354 353 352 350 350 349 349 350 350 351 352 352 353 354 354 354 354 354 355 354 354 355
319 319 322 329 334 332 329 327 321 318 320 320 323 334 336 327 325 328 331 333 331 335 343 347 353 358 356 354 353 349 346 348 350 354 359 360 359 357 353 351 350 348 347 348 349 350 350 350 350 350 351 352 352 353 353 354 355 355 355 356 356 355 355
318 319 323 329 337 336 330 324 319 316 320 320 320 329 335 330 326 326 329 330 329 330 337 342 351 359 359 356 355 349 346 347 348 351 355 356 358 359 356 351 346 345 347 349 350 350 349 350 350 350 351 352 353 353 354 354 355 356 356 356 356 356 356
315 318 323 330 335 333 324 319 317 318 321 321 323 332 336 330 326 326 327 327 325 326 331 335 343 354 359 357 353 348 346 347 347 349 352 353 355 356 355 354 351 349 349 350 350 351 350 349 350 350 351 352 353 353 354 355 355 356 356 356 356 357 357
315 317 322 326 328 325 319 317 318 319 320 322 329 339 337 329 326 326 325 324 323 323 326 330 335 344 349 350 347 345 345 345 345 347 350 352 354 354 354 355 355 354 354 353 353 353 352 351 350 351 351 352 353 354 355 355 356 356 356 357 356 358 357
318 319 320 323 325 321 318 319 319 319 322 327 333 336 331 326 326 326 324 323 322 322 324 326 329 334 338 340 341 341 340 341 343 345 346 349 351 353 353 354 355 356 356 357 357 357 357 355 351 350 351 352 353 355 354 355 356 356 357 357 357 357 358
321 322 322 325 325 319 317 319 319 319 325 330 330 327 325 323 324 324 324 323 321 321 322 324 326 329 330 332 334 334 335 338 340 340 343 346 348 350 351 352 352 353 354 355 356 358 360 360 355 351 352 354 355 356 355 355 357 357 357 357 357 358 359
321 323 324 326 324 318 317 318 318 319 321 322 320 320 319 319 319 320 323 323 321 320 321 323 326 327 325 326 328 327 330 335 337 338 341 343 345 347 349 349 349 349 350 351 352 355 358 361 359 356 357 358 358 358 358 359 360 360 359 359 358 358 358
318 321 321 321 319 316 316 318 318 317 317 316 315 316 315 315 315 317 319 321 321 320 319 322 326 326 323 323 323 323 326 330 334 337 338 340 343 345 347 348 348 347 347 348 349 351 354 358 359 359 359 360 358 358 360 362 363 363 363 362 362 361 359
315 319 319 317 315 315 316 317 317 315 314 313 313 314 314 313 314 316 316 317 319 320 319 320 324 325 323 321 320 321 324 327 331 335 336 338 340 343 344 347 347 346 347 348 348 349 352 354 357 359 359 359 358 357 359 361 362 363 364 364 365 366 364
313 317 317 314 312 312 313 315 317 315 312 311 312 313 314 313 313 315 315 315 317 319 319 320 322 323 323 323 320 319 321 324 328 332 334 335 338 341 343 346 346 345 347 347 348 348 350 352 355 357 358 359 358 358 358 359 360 361 362 362 363 365 365
314 318 316 311 310 310 311 314 316 315 313 312 311 312 313 313 313 314 314 314 316 318 319 320 321 320 320 322 321 318 319 323 326 329 332 334 335 338 341 344 346 345 345 346 346 346 347 349 352 355 357 357 358 358 358 358 358 359 359 360 362 363 364
313 314 311 308 309 312 314 315 316 315 313 312 311 311 311 312 312 312 313 314 315 317 318 320 321 318 317 320 322 319 319 322 325 328 332 333 333 336 339 343 345 345 344 344 345 344 345 348 350 353 355 355 356 357 357 358 359 360 360 359 362 363 365
311 311 309 308 310 313 315 314 313 312 312 311 311 310 310 310 310 311 313 313 314 315 317 319 320 319 317 318 321 320 319 320 323 326 331 333 332 334 337 340 344 345 344 343 344 343 344 347 351 353 354 355 356 357 357 359 360 361 361 362 363 364 364
310 310 308 308 309 311 311 310 309 310 310 310 310 310 309 309 310 311 312 312 313 314 317 319 320 320 318 317 319 321 321 320 320 324 330 332 332 332 335 339 342 345 344 343 344 343 344 348 352 353 354 356 357 358 359 360 361 361 362 363 363 364 366
310 309 308 307 308 308 308 308 308 309 310 310 309 309 310 310 310 311 312 312 312 314 317 319 318 318 318 317 317 320 322 321 318 321 328 332 332 332 334 337 340 342 343 343 343 343 344 348 351 353 354 355 357 357 358 358 359 360 362 362 362 363 366
309 308 307 307 308 308 307 307 307 307 309 310 310 310 310 310 310 311 312 312 312 313 316 318 317 316 318 317 316 320 323 320 318 320 326 330 332 332 333 335 337 339 342 343 342 342 345 348 351 352 353 354 355 356 356 356 357 358 360 360 360 361 364
309 308 308 308 308 308 307 307 307 307 308 309 310 311 311 312 312 312 312 312 312 313 316 318 316 315 316 317 316 318 320 319 319 321 324 327 330 331 332 334 337 338 341 343 343 343 344 347 349 350 351 352 353 354 354 355 356 357 356 356 357 360 364
Wind_Speed
7 5 6 9 11 6 4 7 9 6 5 5 3 4 1 3 5 6 3 4 4 2 7 5 3 7 10 13 14 14 15 13 10 11 13 15 15 15 15 15 16 17 16 20 25 28 30 32 34 37 39 40 41 40 39 40 39 39 40 40 40 40 39
8 8 8 8 12 8 4 7 8 5 6 4 5 4 2 3 7 5 2 6 5 4 6 4 5 7 8 11 12 13 14 10 11 13 14 16 17 17 17 17 17 16 16 19 25 30 33 35 37 38 39 40 40 39 39 39 39 39 40 41 40 40 39
9 10 7 6 9 10 7 6 8 7 5 7 6 5 6 6 5 4 3 4 5 6 6 4 8 10 9 10 11 12 13 11 12 13 14 16 17 16 16 16 15 14 15 18 24 29 32 35 36 37 38 38 38 39 39 40 40 41 41 40 40 39 39
9 7 2 4 7 11 9 5 7 7 5 6 6 4 3 4 4 4 3 2 4 6 6 8 11 12 11 11 10 11 13 12 12 13 13 14 15 15 15 15 14 15 16 20 27 30 32 34 35 35 36 36 37 38 38 38 39 39 39 39 39 38 38
6 4 3 4 4 5 6 5 6 7 4 2 4 3 2 4 4 3 3 3 5 5 5 9 12 12 12 13 12 12 12 12 13 13 13 13 14 15 16 16 15 17 17 21 28 31 30 31 31 32 34 36 37 37 37 38 38 38 38 39 38 38 37
3 6 6 4 2 2 3 4 5 8 5 3 5 5 3 4 4 4 3 4 6 5 4 8 11 11 12 13 13 12 12 13 14 13 14 14 15 16 17 17 17 17 17 19 24 28 27 27 29 33 35 36 36 37 37 37 37 38 39 39 38 38 37
7 16 18 13 9 6 5 5 4 5 4 5 6 7 4 3 3 3 2 4 7 6 6 8 9 10 11 12 13 12 11 12 13 14 15 15 15 16 17 17 17 16 17 18 21 25 28 30 32 34 35 35 36 37 37 37 37 38 39 39 39 39 38
7 14 14 8 5 3 2 3 3 3 3 4 6 5 4 4 4 3 4 8 8 5 5 7 8 8 7 7 10 11 11 10 10 13 14 13 14 16 16 16 15 15 14 14 16 19 24 28 29 31 33 34 35 36 36 37 38 39 39 39 39 38 38
4 7 5 1 3 4 2 4 5 4 6 6 3 2 3 3 7 8 6 8 8 3 1 2 4 5 4 4 6 8 9 8 9 10 11 12 14 14 15 15 15 14 13 13 13 15 21 26 28 30 32 33 34 36 37 38 38 39 39 38 38 38 38
4 5 3 2 2 5 4 6 8 7 7 7 5 2 3 5 7 8 7 9 8 1 2 1 0 3 5 5 5 5 7 8 7 8 10 11 12 14 15 16 15 14 14 14 15 16 20 26 28 30 32 33 34 35 37 38 38 38 38 37 36 37 37
5 4 3 3 3 5 7 10 13 12 8 6 4 3 5 6 4 5 7 10 8 6 4 4 4 5 6 6 6 5 7 9 8 8 10 11 12 14 15 14 14 14 14 16 17 17 21 26 29 30 32 33 34 35 36 37 37 36 36 36 36 36 36
9 8 9 8 6 7 10 11 13 14 12 8 5 6 6 3 5 7 8 5 7 12 9 4 4 7 7 6 8 8 8 10 10 10 11 13 14 14 13 13 14 16 16 17 17 17 20 25 28 29 31 32 34 34 35 35 35 35 36 36 36 36 36
10 10 11 12 9 9 10 10 12 15 14 11 9 9 8 4 6 9 6 5 9 11 6 4 2 5 7 8 9 8 8 9 11 11 12 14 16 15 14 14 16 17 17 17 17 18 19 23 26 27 28 30 31 32 33 34 35 35 36 36 36 36 35
10 11 12 12 9 7 8 9 10 11 13 13 11 11 10 10 10 8 6 9 10 4 5 7 6 5 5 6 5 6 8 10 11 13 14 15 16 15 15 16 16 17 18 18 18 17 17 20 25 26 27 29 31 32 33 34 35 36 36 36 36 35 35
8 9 8 7 7 7 7 6 6 9 11 8 6 7 6 6 8 9 8 10 8 4 6 6 6 5 4 5 8 8 8 9 11 13 14 14 15 15 15 17 16 17 17 16 16 17 17 21 26 28 28 30 32 31 32 34 35 35 36 36 35 36 36
5 5 4 4 6 6 6 2 8 12 11 8 3 1 4 3 4 5 6 6 5 6 8 6 6 8 10 11 12 11 10 10 9 11 11 13 15 15 16 16 15 15 15 16 17 17 18 22 26 28 28 29 29 31 33 34 34 34 35 35 35 35 36
4 5 4 7 5 4 4 1 6 8 8 8 6 6 10 8 3 2 2 4 5 7 7 7 9 11 12 11 10 10 11 13 10 8 9 10 12 15 16 16 15 16 15 16 18 19 20 25 30 31 32 32 32 33 34 33 33 33 33 33 33 34 34
4 6 6 5 4 4 4 3 5 7 6 8 8 8 12 13 8 5 4 5 8 9 7 6 7 8 10 9 9 10 11 12 11 8 7 8 8 9 11 13 14 15 14 14 16 20 25 28 30 32 32 30 29 29 30 31 31 32 32 31 31 32 33
4 6 4 3 6 4 5 7 8 9 4 6 8 7 14 18 16 13 12 11 12 12 8 7 5 3 5 7 10 14 14 12 12 9 5 6 7 7 7 10 12 12 13 12 13 17 23 25 26 27 27 26 25 27 29 31 31 31 31 31 31 33 33
2 3 2 4 4 2 4 5 9 10 5 7 10 7 14 19 17 15 15 13 14 13 10 8 5 4 2 5 10 15 17 15 13 11 7 2 6 8 8 9 10 11 12 14 16 19 22 25 26 26 26 26 27 28 30 30 30 31 31 31 32 33 33
2 2 3 2 2 2 3 3 5 7 5 8 8 3 8 14 15 14 14 14 15 14 12 11 7 4 2 6 11 15 18 18 15 12 10 6 2 6 7 7 8 10 14 17 19 22 24 26 27 27 27 28 28 27 28 28 29 30 30 31 32 32 33
1 2 3 1 2 3 1 2 6 8 8 9 8 3 2 10 15 16 14 14 16 15 14 15 11 4 4 8 8 12 17 17 16 13 12 10 7 5 7 10 12 15 18 21 22 25 25 24 25 28 28 28 28 26 26 27 28 28 29 30 31 31 33
2 2 2 1 2 3 1 8 12 13 11 8 5 4 2 10 15 16 15 15 16 15 15 16 11 5 6 5 6 11 14 14 13 12 12 12 11 9 8 9 12 17 22 24 24 25 25 24 26 29 30 29 27 25 25 27 27 26 28 30 31 32 34
4 4 2 2 1 1 6 12 14 15 12 5 3 3 3 9 12 13 14 15 16 15 14 13 10 8 6 4 7 10 12 11 12 12 12 12 12 11 12 12 12 16 21 22 21 21 23 26 29 32 32 30 27 25 25 26 25 26 29 32 33 34 35
5 5 2 1 0 2 9 13 14 15 10 2 3 2 2 6 10 11 12 13 14 14 13 10 8 7 6 6 9 10 10 13 14 13 13 15 15 15 15 16 15 16 17 17 17 16 19 25 30 32 32 28 24 24 25 24 25 28 32 33 33 34 34
3 2 1 0 2 3 12 13 12 11 5 3 3 4 3 7 11 11 11 12 13 14 13 9 7 8 9 9 9 11 13 14 13 14 14 16 17 17 18 19 18 16 16 17 17 15 15 21 27 30 29 25 21 22 22 21 24 27 29 31 32 33 33
2 0 1 1 1 5 14 13 8 8 7 3 3 5 6 9 12 12 11 11 11 13 13 10 9 10 11 12 13 14 14 14 13 14 16 15 15 14 15 17 17 15 14 15 17 17 16 19 23 27 27 22 20 20 18 17 20 22 23 26 28 29 30
2 2 3 3 2 5 11 9 5 6 6 4 5 7 7 8 9 10 10 11 12 13 13 12 11 11 13 15 16 14 14 15 13 13 15 16 15 13 14 16 18 17 14 14 17 19 19 21 22 25 27 25 22 20 18 17 18 18 18 19 21 24 28
3 2 3 3 2 4 7 5 4 5 6 7 8 8 6 7 8 8 9 12 14 14 13 13 12 11 13 14 14 13 12 12 12 13 14 15 15 15 15 17 18 17 15 15 17 18 20 22 23 24 26 26 22 18 16 17 17 16 15 15 14 15 19
4 0 4 4 5 7 7 4 2 5 6 7 9 9 7 7 8 8 9 11 13 13 13 13 12 11 12 13 13 13 12 11 12 12 13 14 16 17 16 16 16 16 16 16 16 17 18 20 22 23 24 24 22 18 16 15 15 13 12 11 10 9 9
5 1 5 8 11 11 8 3 2 5 6 7 8 8 7 7 8 9 9 11 13 12 11 11 12 12 12 13 14 14 12 11 11 11 11 13 14 15 16 16 16 15 15 14 14 15 15 16 19 22 22 22 20 18 16 14 12 10 10 9 7 7 5
5 1 6 12 12 8 2 3 3 5 7 10 11 10 9 8 8 9 9 10 10 11 11 10 11 13 12 11 13 14 12 10 10 9 9 11 13 16 18 18 16 15 13 12 12 12 12 13 16 19 19 18 17 16 15 13 11 9 8 7 6 5 4
4 2 8 14 11 6 7 7 7 9 9 11 13 14 13 12 10 9 9 9 9 10 11 10 9 12 13 10 11 13 13 10 8 8 9 11 13 16 18 18 15 13 12 11 11 11 10 13 17 17 17 16 15 15 14 12 10 10 9 7 6 4 2
4 5 10 12 8 5 6 9 11 12 11 12 13 15 15 13 11 9 9 10 10 9 10 9 7 9 12 10 9 10 13 12 8 7 9 12 14 16 18 18 17 14 11 10 11 10 10 14 17 18 17 16 15 15 14 12 11 10 9 9 8 6 4
7 9 11 10 7 8 10 11 11 12 11 11 13 15 15 14 12 9 8 9 10 9 10 10 7 7 9 11 8 6 11 16 15 10 9 11 13 15 16 16 16 15 13 10 10 10 10 14 17 17 17 17 16 15 14 12 11 10 9 10 10 8 7
9 10 11 10 9 10 12 13 14 13 10 10 12 14 14 13 12 10 9 9 9 9 9 8 9 8 9 11 9 5 7 17 21 16 12 12 13 16 16 15 14 15 13 9 7 8 10 13 15 16 16 16 15 14 13 11 11 10 11 12 11 10 9
9 9 11 11 10 11 11 11 11 11 11 11 12 12 13 14 12 10 9 8 8 10 9 6 8 12 10 10 11 9 7 14 23 21 14 13 15 17 18 18 16 15 13 10 5 7 10 12 14 14 15 14 14 13 12 11 10 11 12 13 13 11 10
Wind_Direction
302 250 231 188 172 184 181 175 201 203 142 138 201 238 208 126 220 239 199 228 257 268 274 274 184 192 202 214 223 223 226 216 184 184 192 194 199 198 197 198 198 197 192 191 193 194 194 194 195 197 197 196 196 196 197 198 200 200 200 202 203 204 205
298 339 320 235 188 161 147 187 194 142 117 174 203 229 235 191 229 257 217 215 211 199 249 244 167 191 214 218 221 225 227 207 183 192 194 192 196 196 197 199 198 195 192 192 194 195 196 195 196 197 197 197 197 197 197 197 198 199 201 202 203 205 205
307 340 331 260 202 181 184 185 165 142 162 199 189 199 216 210 235 279 281 226 206 203 226 210 185 198 214 219 220 226 224 205 194 200 195 192 194 194 197 200 198 193 193 194 195 197 197 196 196 196 196 196 196 198 198 198 199 200 201 202 203 205 206
329 321 253 218 211 202 198 164 155 170 193 195 188 188 187 192 225 257 267 254 234 229 208 183 193 201 201 207 215 222 221 211 202 200 195 192 191 193 197 199 196 193 194 196 196 197 196 195 195 194 193 194 196 197 198 198 200 200 201 202 203 204 205
339 281 218 203 216 209 201 186 175 190 204 181 194 207 174 180 196 221 248 259 256 251 203 182 196 202 196 196 203 214 218 212 207 202 195 191 190 194 198 196 194 194 195 196 196 196 195 192 192 191 192 194 195 196 197 198 198 198 199 201 202 203 204
308 264 278 301 332 339 242 229 196 195 194 139 181 225 224 193 197 192 212 260 261 252 208 189 197 201 200 197 197 208 216 209 207 206 198 193 193 196 198 197 195 195 195 195 193 190 187 187 188 190 192 193 193 195 196 197 197 197 198 199 200 202 203
262 265 274 281 278 272 256 247 226 210 190 151 187 225 214 192 220 198 195 278 268 238 202 197 203 201 202 204 198 203 215 211 206 208 202 195 195 199 200 198 196 196 195 192 186 181 182 186 189 190 191 191 193 194 195 196 196 198 198 198 199 201 202
274 269 268 272 276 258 231 270 291 282 260 220 206 201 173 184 210 189 223 264 263 246 207 203 214 209 196 206 207 207 216 214 206 211 209 199 198 201 201 198 198 198 192 183 178 179 182 186 188 189 189 191 192 193 194 195 197 198 198 198 199 199 201
292 276 257 246 9 15 356 307 306 315 321 311 272 167 137 207 207 177 190 246 251 265 284 219 237 244 223 221 223 219 226 222 206 210 213 207 204 202 199 197 196 191 180 175 178 180 183 184 186 187 188 190 191 192 193 195 197 198 198 197 197 198 201
204 224 200 170 336 334 321 307 305 317 342 337 302 217 179 226 217 175 184 235 239 244 45 93 251 267 252 258 263 247 244 239 219 210 213 213 209 205 201 196 190 184 178 178 181 180 182 184 185 186 187 189 190 191 193 195 196 197 196 197 197 198 200
221 244 262 236 266 296 296 304 307 303 307 313 305 242 209 209 192 186 216 237 247 251 225 192 205 230 232 253 267 257 248 246 233 216 213 214 211 207 202 192 183 180 180 181 181 180 182 184 184 185 186 187 188 190 192 195 195 195 195 195 196 198 200
250 266 278 273 272 278 278 285 292 292 295 298 278 250 240 176 163 223 237 235 254 257 245 206 214 227 227 242 247 243 241 240 236 225 214 213 212 207 199 188 181 181 182 182 182 180 181 182 183 185 186 187 188 189 191 192 192 193 193 194 195 197 199
261 260 265 268 264 260 260 264 271 280 289 285 260 252 252 218 215 237 226 192 231 257 293 355 312 238 241 249 248 255 259 246 239 235 221 212 209 203 192 185 182 183 183 182 181 181 180 179 180 182 184 185 186 187 189 189 191 192 192 192 195 196 198
275 267 261 254 243 243 253 256 261 276 285 274 253 247 249 248 253 255 224 215 231 267 349 334 306 273 253 256 276 300 287 262 243 234 225 212 203 195 188 185 185 185 185 182 180 178 176 176 178 179 180 183 184 186 186 188 190 191 191 191 193 195 198
281 272 250 229 225 231 241 260 297 321 320 299 249 237 256 267 266 267 255 240 246 318 340 316 316 341 4 3 352 340 312 280 251 230 218 204 193 189 188 185 185 185 183 178 174 174 176 178 178 179 181 182 183 184 185 187 189 189 189 190 193 195 199
288 261 220 255 263 226 214 296 351 346 345 1 27 39 19 344 275 294 301 268 271 316 323 327 350 13 27 20 359 347 338 319 278 233 211 195 186 185 187 186 185 182 177 172 173 176 178 179 179 181 180 179 181 183 185 186 187 187 188 190 193 196 200
277 256 277 304 287 195 199 313 7 349 342 7 28 36 22 1 331 22 328 268 290 309 317 351 17 25 28 20 3 350 342 334 309 252 212 195 191 187 185 183 180 177 174 175 177 177 177 179 182 182 179 179 183 185 184 183 183 184 187 190 192 196 199
264 283 308 296 216 177 186 142 58 8 346 6 19 36 25 12 15 22 331 307 324 319 314 345 8 26 29 20 7 359 351 344 327 286 225 196 193 191 187 183 179 177 176 177 177 177 179 181 182 180 180 181 183 181 179 179 181 184 186 188 191 195 198
272 304 312 203 178 169 155 127 48 12 1 356 355 32 35 20 14 8 351 335 330 325 318 315 306 329 18 24 18 7 359 353 341 318 268 193 172 174 184 181 175 173 171 169 171 174 176 176 174 175 177 177 174 174 176 179 181 183 185 187 191 195 198
278 310 283 184 162 82 88 88 24 8 15 352 342 24 36 19 10 6 353 337 331 327 322 320 300 261 283 26 24 8 357 352 347 340 326 255 170 162 170 175 173 170 166 165 165 166 167 167 168 171 173 172 170 173 177 179 180 182 184 188 192 196 199
231 277 291 250 146 45 23 46 10 350 334 323 321 357 38 18 9 0 346 337 338 336 333 337 322 264 294 30 19 360 353 349 344 348 352 351 104 137 140 141 140 143 148 152 154 155 159 164 167 169 170 170 170 172 175 178 179 181 184 190 194 196 199
295 291 292 305 150 165 206 316 317 310 298 294 287 257 42 17 6 355 344 340 342 345 348 342 326 303 34 30 4 346 347 346 345 353 6 14 31 77 115 127 129 131 137 144 150 154 157 162 166 167 167 168 168 170 174 177 179 181 186 193 196 197 200
313 295 258 255 166 148 6 323 309 306 308 299 260 201 55 12 359 351 348 348 348 352 353 344 340 23 54 27 347 338 337 341 350 359 10 20 28 38 61 98 126 137 142 145 151 155 157 160 164 165 166 166 167 170 174 177 179 183 189 195 198 200 203
252 246 252 307 161 110 341 324 313 310 307 287 188 157 34 2 351 347 350 353 351 352 352 352 5 35 38 356 320 319 327 347 2 8 13 22 29 36 43 59 95 125 135 140 147 153 158 162 164 165 166 167 169 172 174 176 180 186 193 198 201 204 206
242 229 225 330 107 22 338 327 320 313 296 214 112 69 18 348 342 345 353 355 351 351 358 9 16 4 339 308 299 316 349 9 8 8 16 24 31 38 43 51 68 92 107 115 123 136 152 160 164 166 168 168 170 171 172 176 184 191 196 201 204 206 208
262 221 190 266 149 19 348 335 327 330 336 114 62 28 33 360 346 345 352 355 353 352 356 7 3 333 319 320 334 358 13 13 5 6 15 21 25 32 40 46 56 71 83 89 93 103 130 152 162 166 165 162 163 167 170 177 187 192 197 201 204 207 209
324 355 58 66 119 6 352 347 348 9 29 46 354 2 19 7 353 345 345 353 356 351 348 351 347 334 336 353 4 9 11 9 6 9 14 16 17 21 28 32 41 57 71 75 76 83 104 130 147 155 152 145 144 148 152 162 174 184 194 200 204 208 210
2 33 52 55 46 351 354 1 32 48 42 25 3 7 7 0 354 347 341 344 349 348 343 340 338 340 353 4 7 4 3 3 2 6 14 16 15 16 18 22 32 47 58 65 70 76 89 106 123 135 135 129 125 128 132 139 148 157 171 184 194 203 209
354 17 78 82 51 352 350 359 43 57 42 21 12 12 6 354 350 345 338 336 339 344 343 338 339 347 354 359 3 3 358 354 356 6 13 13 11 13 16 20 29 42 53 62 67 70 79 92 105 117 123 120 116 116 124 130 132 135 143 151 164 182 198
319 187 108 68 8 343 327 317 42 52 34 14 5 1 359 350 341 337 335 330 330 336 341 341 342 345 348 352 360 5 0 353 355 2 5 7 10 12 13 16 27 42 55 61 63 64 69 81 94 102 109 111 109 110 117 121 123 128 133 136 142 150 166
327 107 71 20 340 318 298 258 94 44 16 1 356 348 340 335 331 328 326 324 324 328 336 341 339 339 346 354 358 0 1 355 351 352 356 1 5 7 8 13 24 42 53 55 56 58 60 71 86 94 98 100 101 104 107 109 113 121 125 129 139 145 152
329 314 18 360 336 324 1 91 79 27 359 345 338 331 323 318 317 314 313 317 320 321 324 333 336 336 342 354 357 354 353 350 344 343 350 357 1 4 7 12 23 39 47 51 57 60 60 70 83 90 94 97 99 100 100 102 110 117 120 127 136 144 162
318 316 355 355 351 18 50 33 354 341 337 329 323 318 313 308 305 304 305 308 310 310 313 321 334 334 334 349 2 351 339 339 342 335 336 350 1 5 5 7 18 35 44 52 61 63 66 78 84 85 87 91 95 98 98 101 108 111 113 119 125 131 146
348 343 344 346 338 325 335 333 322 314 311 310 308 304 301 299 298 298 299 299 298 299 302 309 328 333 326 336 2 351 327 323 330 331 336 349 358 3 6 8 14 25 38 53 62 61 67 78 83 83 83 85 88 90 90 91 94 99 107 110 105 103 109
320 318 323 325 313 298 299 301 297 292 291 293 292 290 289 288 288 289 288 290 292 294 296 303 318 329 319 320 340 349 321 315 318 329 349 356 354 356 4 10 8 8 17 41 56 58 67 77 81 81 81 82 83 82 81 81 82 85 94 99 93 89 99
304 308 316 315 308 299 294 291 288 286 282 277 277 277 278 278 279 280 276 275 278 279 282 295 312 318 312 310 316 329 318 311 313 323 349 4 360 357 1 7 7 0 358 10 37 58 72 79 81 81 79 78 78 76 74 75 78 81 86 91 91 92 106
307 308 311 310 302 294 288 284 280 277 273 271 268 268 270 272 274 276 274 269 267 268 268 281 303 303 300 301 307 314 312 307 309 317 338 1 3 2 0 357 355 352 345 343 17 67 77 78 79 79 78 78 79 80 77 75 78 82 85 88 91 96 112